This is the latest recevied weather packets stored in our database for station/object I3LPO-3. If no packets are shown the sender has not sent any weather packets the latest 10 day(s).
| Time | Temp. | Humidity | Pressure | Rain* | Wind** | Luminosity | Snow |
|---|---|---|---|---|---|---|---|
| 1777410688 | 18.89° C | 39% | 1018 hPa | - | - | - | - |
| 1777409487 | 19.44° C | 39% | 1017.9 hPa | - | - | - | - |
| 1777408286 | 19.44° C | 39% | 1017.8 hPa | - | - | - | - |
| 1777407084 | 20° C | 39% | 1017.6 hPa | - | - | - | - |
| 1777405878 | 20° C | 39% | 1017.5 hPa | - | - | - | - |
| 1777404677 | 20.56° C | 39% | 1017.2 hPa | - | - | - | - |
| 1777403476 | 20.56° C | 39% | 1016.9 hPa | - | - | - | - |
| 1777402273 | 21.11° C | 39% | 1016.7 hPa | - | - | - | - |
| 1777401072 | 21.11° C | 39% | 1016.5 hPa | - | - | - | - |
| 1777399871 | 21.67° C | 39% | 1016.3 hPa | - | - | - | - |
| 1777398670 | 22.22° C | 39% | 1016.1 hPa | - | - | - | - |
| 1777397468 | 22.22° C | 39% | 1015.9 hPa | - | - | - | - |
| 1777396267 | 22.22° C | 39% | 1015.9 hPa | - | - | - | - |
| 1777395066 | 22.78° C | 39% | 1015.7 hPa | - | - | - | - |
| 1777393865 | 23.33° C | 39% | 1015.7 hPa | - | - | - | - |
| 1777392663 | 23.33° C | 39% | 1015.6 hPa | - | - | - | - |
| 1777391462 | 23.33° C | 39% | 1015.7 hPa | - | - | - | - |
| 1777390261 | 23.33° C | 39% | 1015.6 hPa | - | - | - | - |
| 1777389059 | 23.89° C | 39% | 1015.6 hPa | - | - | - | - |
| 1777387858 | 23.89° C | 39% | 1015.7 hPa | - | - | - | - |
| 1777386656 | 23.89° C | 39% | 1015.7 hPa | - | - | - | - |
| 1777385455 | 23.89° C | 39% | 1015.7 hPa | - | - | - | - |
| 1777384253 | 24.44° C | 39% | 1015.9 hPa | - | - | - | - |
| 1777383052 | 23.89° C | 40% | 1016.1 hPa | - | - | - | - |
| 1777381851 | 24.44° C | 40% | 1016.2 hPa | - | - | - | - |
* Rain since midnight (hover to see other rain measurements)
** Current wind speed in m/s (hover to see current wind gust speed)